Regional Weather Roundup
Issued by NWS

Home | Current Version | Previous Version | Text Only | Print | Product List | Glossary On
Versions: 1 2 3 4 5 6 7 8 9 10 11 12 13 14 15 16 17 18 19 20 21 22 23 24 25 26 27 28 29 30 31 32 33 34 35 36 37 38 39 40 41 42 43 44 45 46 47 48 49 50
000
ASUS43 KDTX 102110
RWRMI
MICHIGAN HOURLY REGIONAL WEATHER ROUNDUP
NATIONAL WEATHER SERVICE DETROIT/PONTIAC MI
ISSUED BY NATIONAL WEATHER SERVICE GRAND RAPIDS MI
400 PM EST SUN DEC 10 2017

NOTE: "FAIR" INDICATES FEW OR NO CLOUDS BELOW 12,000 FEET WITH NO
SIGNIFICANT WEATHER AND/OR OBSTRUCTION TO VISIBILITY.

MIZ047>049-052>055-059>063-066>070-074>076-081>083-102200-
SOUTHEAST LOWER MICHIGAN

CITY           SKY/WX    TMP DP  RH WIND       PRES   REMARKS
ADRIAN         CLOUDY    27  18  69 W7        29.91R WCI  19
ALMA           LGT SNOW  26  25  94 SW6       29.86R WCI  20
ANN ARBOR      CLOUDY    26  17  68 S13       29.89R WCI  15
BAD AXE        LGT SNOW  26  23  89 W8        29.84R WCI  17
DETROIT CITY   CLOUDY    26  17  68 SW8       29.90R WCI  18
DETROIT        CLOUDY    27  18  69 SW13      29.91R WCI  16
FLINT          CLOUDY    25  17  72 W12       29.86R WCI  14
GROSSE ILE     CLOUDY    27  19  70 W7        29.90R WCI  20
HILLSDALE      CLOUDY    28  19  69 SW7       29.87R WCI  21
HOWELL         CLOUDY    26  19  75 SW6       29.86R WCI  20

CITY           SKY/WX    TMP DP  RH WIND       PRES   REMARKS
JACKSON        CLOUDY    27  18  69 SW13      29.87R WCI  16
LANSING        CLOUDY    26  19  74 SW12      29.87R WCI  16
MASON          CLOUDY    27  17  65 SW6       29.87R WCI  20
MONROE         CLOUDY    28  18  67 W10       29.90R WCI  18
MT. CLEMENS    CLOUDY    26  18  69 SW13      29.85F WCI  15
PONTIAC        CLOUDY    26  17  68 SW9       29.84R WCI  17
PORT HOPE        N/A     28  23  81 VRB5      29.81S WCI  23
PORT HURON     CLOUDY    27  16  63 S6        29.87R WCI  20
TRI CITIES     LGT SNOW  26  26 100 SW9       29.86R FOG     WCI  17
YPSILANTI      CLOUDY    28  19  69 SW12      29.90R WCI  18
$$
MIZ043>046-050>051-056>058-064>065-071>073-077>080-102200-
SOUTHWEST LOWER MICHIGAN

CITY           SKY/WX    TMP DP  RH WIND       PRES   REMARKS
BATTLE CREEK   CLOUDY    28  20  71 SW13      29.87R WCI  17
BENTON HARBOR  CLOUDY    32  22  66 W12G21    29.90R WCI  23
BIG RAPIDS     CLOUDY    26  21  83 NW5       29.84R WCI  20
COLDWATER      CLOUDY    28  20  72 SW9       29.89R WCI  19
HOLLAND        CLOUDY    31  24  75 NW7       29.88R WCI  24
GRAND RAPIDS   FLURRIES  27  23  85 SW10      29.86R WCI  17
KALAMAZOO      CLOUDY    28  20  71 SW8       29.89R WCI  20
MARSHALL       CLOUDY    27  19  71 SW8       29.87R WCI  18
MOUNT PLEASANT CLOUDY    28  26  90 W7        29.84R FOG     WCI  21
MUSKEGON       FLURRIES  30  22  72 NW14      29.88R WCI  19
STURGIS        CLOUDY    27  20  75 SW9       29.88R WCI  18
$$
MIZ016>042-102200-
NORTHERN LOWER MICHIGAN

CITY           SKY/WX    TMP DP  RH WIND       PRES   REMARKS
ALPENA         LGT SNOW  25  21  85 NW13      29.82R FOG     WCI  14
BEAVER ISLAND  CLOUDY    22  14  71 NW15      29.88R WCI   9
BELLAIRE       CLOUDY    26  24  89 N5        29.85R WCI  21
CADILLAC       FLURRIES  24  19  83 W6        29.80R WCI  17
CHARLEVOIX     CLOUDY    26  17  67 NW14G22   29.88R WCI  15
GAYLORD        LGT SNOW  22  16  78 NW8       29.78R WCI  12
HOUGHTON LAKE  LGT SNOW  25  20  81 W12       29.81R WCI  14
MANISTEE       FLURRIES  26  19  74 CALM      29.87R
OSCODA         CLOUDY    28  19  68 SW10      29.80R WCI  19
PELLSTON       CLOUDY    22  15  75 N18       29.86R WCI   7
TRAVERSE CITY  FLURRIES  28  21  75 W6        29.84R WCI  22
LUDINGTON      CLOUDY    27  19  73 CALM      29.87R
$$
MIZ007>008-015-102200-
EASTERN UPPER MICHIGAN

CITY           SKY/WX    TMP DP  RH WIND       PRES   REMARKS
KINROSS        FLURRIES  16   9  74 NW17      29.84R WCI   0
MACKINAC ISLAN CLOUDY    21  11  65 NW14G24   29.85R WCI   8
NEWBERRY       CLOUDY    14   8  75 NW7G17    29.87R WCI   4
S. S. MARIE    MOCLDY    16   5  62 NW12      29.85R WCI   3
$$
MIZ004>006-011>014-085-102200-
CENTRAL UPPER MICHIGAN

CITY           SKY/WX    TMP DP  RH WIND       PRES   REMARKS
MANISTIQUE     CLOUDY    18   2  49 NW18      29.89R WCI   2
ESCANABA       FLURRIES  22  13  68 N6        29.92R WCI  14
MENOMINEE      CLOUDY    25  15  66 NW9       29.93R WCI  15
SAWYER-GWINN   CLOUDY    16   9  73 N15       29.90R WCI   1
$$
MIZ001>003-009>011-084-102200-
WESTERN UPPER MICHIGAN

CITY           SKY/WX    TMP DP  RH WIND       PRES   REMARKS
IRON MOUNTAIN  CLOUDY    20  13  74 NW12      29.89R WCI   8
HOUGHTON       CLOUDY    14   2  58 N10       29.94R WCI   1
COPPER HARBOR    N/A     17  10  74 NE15      29.96R WCI   2
IRONWOOD       FLURRIES  19  12  74 NW9       29.96R WCI   8
$$

ABBREVIATIONS USED IN REMARKS
   TC - TEMPERATURE IN CELSIUS
  WCI - WIND CHILL INDEX
   HX - HEAT INDEX
  VSB - VISIBILITY





USA.gov is the U.S. government's official web portal to all federal, state and local government web resources and services.